0 HST 1 20580U 90037B 25346.20429649 .00011165 00000-0 38838-3 0 9997 2 20580 28.4685 276.1346 0001817 231.5243 128.5189 15.28040404759919 0 ISS (ZARYA) 1 25544U 98067A 25346.15413386 .00014398 00000-0 26408-3 0 9999 2 25544 51.6307 145.3792 0003284 237.6977 122.3694 15.49529746542766 0 CXO 1 25867U 99040B 25343.97594738 .00000473 00000-0 00000-0 0 9993 2 25867 53.0333 122.5432 8145103 310.8822 0.4254 0.37805522 16602